sat.trackr.live / text

‹ back to catalog

STARLINK-4760

NORAD 53828 · 2022-114L

PAYLOAD ACTIVE UNKNOWN

§ Identity

Operator
Country
US
Launch date
2022-09-19
Launch site
AFETR
Launch vehicle
Mass (kg)
RCS (m²)

Purposes: comms

External: N2YO · Heavens-Above · Gunter

§ Orbital elements

Epoch: 2026-09-20T07:25:02.450496Z

Period
93.79 min
Inclination
53.1614°
Eccentricity
0.0001155
Mean motion
15.35399072 rev/d
Perigee alt
458.9 km
Apogee alt
460.5 km
Semi-major
6,837.9 km
B*
4.0242e-5
RAAN
141.2740°
Arg perigee
95.5146°
Mean anomaly
264.5989°
Rev number
22,233

§ Raw data

STARLINK-47601 53828U 22114L   26263.30905614  .00001023  00000+0  40242-4 0  99942 53828  53.1614 141.2740 0001155  95.5146 264.5989 15.35399072222338

JSON: /api/v1/satellites/53828 · /tle

For live sub-satellite position, see the globe view (requires WebGL).

§ Visibility from observer

Set your observer location to see the next 7 days of passes ≥ 10°. The values pass through the URL so the page stays shareable.

No JS? Fill the form by hand. The geolocation button needs JavaScript.